Location: Boitzum
(52.1496°N, 9.6943°E)
Time: 06:00:52
(UTC+00:00)

Cosmos 44 - Pass Details

Date: 13 January 2026
Orbit: 570 x 780 km, 65.1° (Epoch: 18 February)

Event Time Altitude Azimuth Distance (km) Brightness Sun altitude
Exits shadow 04:32:10 33° 353° (N) 1,268 4.5 -25.5°
Maximum altitude 04:33:48 42° 35° (NE) 1,088 4.4 -25.3°
Drops below altitude 10° 04:38:54 10° 106° (ESE) 2,332 7.0 -24.5°
Sets 04:41:28 0° 114° (ESE) 3,260 7.9 -24.1°
